Location: Brno
(49.2000°N, 16.6330°E)
Time: 15:28:12
(UTC+02:00)

BREEZE M DEB (TANK) - Visible Passes

Search period start: 30 September 2016 00:00
Search period end: 10 October 2016 00:00
Orbit: 294 x 12017 km, 49.5° (Epoch: 28 September)

Date Brightness Start Highest point End Pass type
(mag) Time Alt. Az. Time Alt. Az. Time Alt. Az.
30 Sep 5.1 01:21:24 75° E 01:21:24 75° E 01:51:32 10° E visible
30 Sep 6.6 05:14:12 10° WNW 05:30:57 75° SSW 06:49:57 10° SE visible
01 Oct 5.5 00:38:00 53° E 00:38:00 53° E 00:59:11 10° ENE visible
01 Oct 6.3 04:30:45 19° WNW 04:43:25 81° SSW 05:56:47 10° SE visible
01 Oct 6.0 23:54:34 36° E 23:54:34 36° E 00:08:24 10° ENE visible
02 Oct 5.9 03:47:20 31° WNW 03:56:14 86° SSW 05:01:46 10° ESE visible
02 Oct 6.4 23:11:08 23° ENE 23:11:08 23° ENE 23:18:47 10° ENE visible
03 Oct 5.5 03:03:54 47° W 03:09:22 89° S 04:05:30 10° ESE visible
03 Oct 6.8 22:27:42 13° ENE 22:27:42 13° ENE 22:29:53 10° ENE visible
04 Oct 5.2 02:20:27 69° W 02:22:47 89° N 03:09:03 10° E visible
04 Oct 6.9 06:15:34 10° WNW 06:36:19 57° SW 07:54:42 10° SSE visible
05 Oct 5.2 01:37:00 85° ENE 01:37:00 85° ENE 02:13:32 10° E visible
05 Oct 6.7 05:30:06 10° WNW 05:48:17 64° SW 07:05:50 10° SSE visible
06 Oct 5.5 00:53:31 61° E 00:53:31 61° E 01:19:40 10° E visible
06 Oct 6.4 04:46:17 18° WNW 05:00:30 71° SSW 06:14:53 10° SE visible
07 Oct 5.9 00:10:03 42° E 00:10:03 42° E 00:27:32 10° ENE visible
07 Oct 6.1 04:02:48 29° WNW 04:13:02 77° SSW 05:21:55 10° SE visible
07 Oct 6.4 23:26:34 28° ENE 23:26:34 28° ENE 23:36:56 10° ENE visible
08 Oct 5.7 03:19:19 45° W 03:25:52 83° SSW 04:27:12 10° SE visible
08 Oct 6.8 22:43:05 17° ENE 22:43:05 17° ENE 22:47:29 10° ENE visible
09 Oct 5.4 02:35:50 65° W 02:39:00 88° SSW 03:31:21 10° ESE visible
09 Oct 7.0 06:31:17 10° WNW 06:52:57 46° SW 08:04:22 10° S visible
